Regional Weather Roundup
Issued by NWS Portland, ME

Home | Current Version | Previous Version | Text Only | Print | Product List | Glossary On
Versions: 1 2 3 4 5 6 7 8 9 10 11 12 13 14 15 16 17 18 19 20 21 22 23 24 25 26 27 28 29 30 31 32 33 34 35 36 37 38 39 40 41 42 43 44 45 46 47 48 49 50
000
ASUS41 KGYX 281910
RWRGYX
WEATHER ROUNDUP FOR MAINE AND NEW HAMPSHIRE
NATIONAL WEATHER SERVICE GRAY ME
300 PM EDT MON JUL 28 2014

MEZ002-005-006-010-012-015-018-020-021-024-026-027-029-282000-
MAINE

CITY           SKY/WX    TMP DP  RH WIND       PRES   REMARKS
PORTLAND       CLOUDY    70  68  93 S13G22    29.52F FOG
SANFORD        PTSUNNY   79  68  69 S8G16     29.48F
BAR HARBOR     CLOUDY    66  66 100 CALM      29.61F
WISCASSET      CLOUDY    70  67  90 VRB7      29.55F
ROCKLAND       CLOUDY    64  64 100 SE10      29.55F
FRYEBURG       CLOUDY    70  68  93 E6        29.50F
LEWISTONAUBURN CLOUDY    70  66  88 S9        29.52F
AUGUSTA        CLOUDY    67  66  97 SE10      29.54F
WATERVILLE     CLOUDY    66  64  94 SE5       29.51F
BANGOR         LGT RAIN  68  66  93 E10       29.60F FOG
GREENVILLE       N/A     66  65  96 E8        29.59F
MILLINOCKET    HVY RAIN  70  67  90 SE7       29.62F FOG
HOULTON        CLOUDY    73  67  81 E8        29.65F
PRESQUE ISLE   CLOUDY    68  63  83 CALM      29.69F
FRENCHVILLE    CLOUDY    68  63  84 SE5       29.70S
CARIBOU        LGT RAIN  68  65  90 SE6       29.69F FOG
$$

NHZ002-005-008-009-011-012-014-282000-
NEW HAMPSHIRE

CITY           SKY/WX    TMP DP  RH WIND       PRES   REMARKS
PORTSMOUTH     MOSUNNY   78  68  72 SE14      29.47F
ROCHESTER      PTSUNNY   78  69  73 S8        29.47F
NASHUA         PTSUNNY   83  68  60 S7G17     29.47F
MANCHESTER     PTSUNNY   82  66  58 S12       29.45F
CONCORD        PTSUNNY   81  67  62 S13       29.47F
LACONIA          N/A     66  63  88 CALM      29.48R THUNDER
PLYMOUTH       TSTM      70  68  93 CALM      29.48S
BERLIN         LGT RAIN  68  66  93 CALM      29.52F
WHITEFIELD     LGT RAIN  69  65  86 CALM      29.51F
JAFFREY        MOSUNNY   77  66  68 S10       29.51S
LEBANON        CLOUDY    72  65  78 N6        29.48S
MT WASHINGTON  LGT RAIN  52  52 100 SW3         N/A  VSB 1/16
$$

VTZ005-007-008-282000-
VERMONT

CITY           SKY/WX    TMP DP  RH WIND       PRES   REMARKS
ST JOHNSBURY     N/A     67  62  84 MISG      29.49F
MONTPELIER     CLOUDY    68  63  84 NE5       29.55S
BURLINGTON     LGT RAIN  68  65  90 NW8       29.50S
$$

MAZ007-012-024-CTZ003-RIZ002-NYZ038-NYZ072-282000-
SOUTHERN NEW ENGLAND AND NY

CITY           SKY/WX    TMP DP  RH WIND       PRES   REMARKS
BOSTON         MOSUNNY   83  68  60 S15       29.48F
WORCESTER      PTSUNNY   77  67  71 SW13      29.51F
NANTUCKET      CLOUDY    73  70  88 S10       29.54F
PROVIDENCE     PTSUNNY   78  71  79 SE10      29.52S
HARTFORD       PTSUNNY   84  68  58 S14       29.45F
ALBANY         CLOUDY    73  64  73 N3        29.48R THUNDER
NEW YORK CITY  PTSUNNY   84  60  44 SW10G24   29.51S
$$

ANZ081-ANZ082-ANZ150-NHZ014-MEZ023>029-282000-
COASTAL MARINE OBSERVATIONS

STATION/POSITION TIME  TEMP    WIND        PRES    WAVE
                       AIR SEA DIR/SP/G            HT/PER
                 (UTC) (F)     (DEG/KT/KT) (MB)    (FT/S)
MOUNT DESERT ROC 1900   61                 1001.9F
MATINICUS ROCK   1800          140/ 24/ 26 1000.9F
PORTLAND WX BUOY 1900   66 61  150/ 16/ 19  998.8F   4/ 5
WELLS            1900   66 59  190/ 10/ 15  998.2F
ISLE OF SHOALS   1800   66     150/ 18/ 19  998.4F
JEFFREYS LEDGE   1900      64                N/A     4/ 5
CASHES LEDGE BUO 1900   67 65  150/ 14/ 16 1000.0F   4/ 5
$$

.............KEY..............
   WCI - WIND CHILL
   TC  - TEMPERATURE IN CELSIUS
   VSB - VISIBILITY IN MILES
   HX  - HEAT INDEX
   FAIR- INDICATES FEW OR NO CLOUDS BELOW 12,000 FT, WITH NO
         SIGNIFICANT WEATHER AND/OR OBSTRUCTIONS TO VISIBILITY.




USA.gov is the U.S. government's official web portal to all federal, state and local government web resources and services.